Weather History for Toledo, OH

Change the Weather History Date:

Saturday, July 20, 2013

  Actual Average Record
Temperature  
Mean Temperature 26 °C 23 °C  
Max Temperature 31 °C 29 °C 38 °C (1930)
Min Temperature 20 °C 17 °C 8 °C (1965)
Degree Days  
Heating Degree Days 0 0  
Month to date heating degree days 1 0  
Since 1 June heating degree days 32 35  
Since 1 July heating degree days 1 0  
Cooling Degree Days 13 9  
Month to date cooling degree days 210 178  
Year to date cooling degree days 466 401  
Since 1 June cooling degree days 372 348  
Growing Degree Days 28 (Base 50)    
Moisture  
Dew Point 21 °C    
Average Humidity 68    
Maximum Humidity 93    
Minimum Humidity 42    
Precipitation  
Precipitation 21.84 mm 2.54 mm 7.26 mm (1989)
Month to date precipitation 2.83 2.03  
Year to date precipitation 23.68 18.97  
Snow  
Snow 0.00 cm 0.00 cm - ()
Month to date snowfall 0.0 0.0  
Since 1 June snowfall 0.0 0.0  
Since 1 July snowfall 0.0 0.0  
Snow Depth 0.00 cm    
Sea Level Pressure  
Sea Level Pressure 1010 hPa    
Wind  
Wind Speed 11 km/h (WSW)    
Max Wind Speed 32 km/h    
Max Gust Speed 39 km/h    
Visibility 14 kilometers    
Events Fog , Rain , Thunderstorm    
T = Trace of Precipitation, MM = Missing Value Source: NWS Daily Summary

Daily Weather History Graph

Daily Weather History Graph

Search for Another Location

Airport:

Trip Planner

Search our weather history database for the weather conditions in past years. The results will help you decide how hot, cold, wet, or windy it might be!

Date:

Astronomy

Jul. 20, 2013 Rise Set
Actual Time 6:18 AM EDT 9:04 PM EDT
Civil Twilight 5:46 AM EDT 9:36 PM EDT
Nautical Twilight 5:05 AM EDT 10:17 PM EDT
Astronomical Twilight 4:18 AM EDT 11:03 PM EDT
Moon 7:06 PM EDT (7/20) 3:57 AM EDT (7/20)
Length of Visible Light 15h 50m
Length of Day
14h 45m
Waxing Gibbous, 93% of the Moon is Illuminated
Jul 20
Waxing Gibbous
Jul 22
Full
Jul 29
Last Quarter
Aug 6
New
Aug 14
First Quarter

Hourly Weather History & Observations

Time (EDT) Temp. Heat Index Dew Point Humidity Pressure Visibility Wind Dir Wind Speed Gust Speed Precip Events Conditions
12:52 AM 27.8 °C 29.9 °C 21.1 °C 67% 1008.2 hPa 14.5 km SW 22.2 km/h / 6.2 m/s 33.3 km/h / 9.3 m/s N/A   Mostly Cloudy
1:52 AM 27.2 °C 29.1 °C 21.1 °C 69% 1007.9 hPa 16.1 km SW 18.5 km/h / 5.1 m/s - N/A   Mostly Cloudy
2:13 AM 27.0 °C 28.9 °C 21.0 °C 70% 1008.4 hPa 16.1 km SW 20.4 km/h / 5.7 m/s - N/A Thunderstorm Thunderstorm
2:36 AM 26.0 °C - 20.0 °C 69% 1008.7 hPa 16.1 km North 20.4 km/h / 5.7 m/s - N/A   Overcast
2:52 AM 25.0 °C - 19.4 °C 71% 1008.0 hPa 16.1 km North 7.4 km/h / 2.1 m/s - N/A   Overcast
3:07 AM 25.0 °C - 19.0 °C 69% 1009.0 hPa 16.1 km North 5.6 km/h / 1.5 m/s - N/A Thunderstorm Thunderstorm
3:31 AM 22.0 °C - 21.0 °C 94% 1009.7 hPa 2.0 km NW 22.2 km/h / 6.2 m/s 38.9 km/h / 10.8 m/s 1.0 mm Rain , Thunderstorm Heavy Thunderstorms and Rain
3:39 AM 21.0 °C - 21.0 °C 100% 1008.7 hPa 0.8 km SW 18.5 km/h / 5.1 m/s 38.9 km/h / 10.8 m/s 13.2 mm Fog , Rain , Thunderstorm Heavy Thunderstorms and Rain
3:44 AM 22.0 °C - 21.0 °C 94% 1008.4 hPa 2.8 km WSW 11.1 km/h / 3.1 m/s - 14.2 mm Rain , Thunderstorm Light Thunderstorms and Rain
3:46 AM 22.0 °C - 21.0 °C 94% 1008.7 hPa 4.8 km West 18.5 km/h / 5.1 m/s - 14.2 mm Rain , Thunderstorm Light Thunderstorms and Rain
3:52 AM 22.2 °C - 21.1 °C 93% 1007.9 hPa 16.1 km West 13.0 km/h / 3.6 m/s - 14.5 mm Rain , Thunderstorm Light Thunderstorms and Rain
4:22 AM 22.0 °C - 21.0 °C 94% 1007.7 hPa 2.8 km SSW 14.8 km/h / 4.1 m/s - 2.8 mm Rain , Thunderstorm Heavy Thunderstorms and Rain
4:30 AM 22.0 °C - 21.0 °C 94% 1007.7 hPa 4.8 km SW 13.0 km/h / 3.6 m/s - 4.3 mm Rain , Thunderstorm Light Thunderstorms and Rain
4:52 AM 22.2 °C - 20.6 °C 91% 1007.7 hPa 6.4 km SW 18.5 km/h / 5.1 m/s - 6.3 mm Rain , Thunderstorm Thunderstorms and Rain
5:52 AM 22.2 °C - 21.1 °C 93% 1007.9 hPa 16.1 km WSW 13.0 km/h / 3.6 m/s - 1.0 mm Thunderstorm Scattered Clouds
6:08 AM 22.0 °C - 21.0 °C 94% 1008.7 hPa 16.1 km SSW 5.6 km/h / 1.5 m/s - N/A   Mostly Cloudy
6:20 AM 22.0 °C - 21.0 °C 94% 1009.4 hPa 16.1 km South 5.6 km/h / 1.5 m/s - N/A Thunderstorm Mostly Cloudy
6:42 AM 22.0 °C - 21.0 °C 94% 1009.7 hPa 16.1 km SSW 7.4 km/h / 2.1 m/s - N/A Thunderstorm Overcast
6:52 AM 22.2 °C - 21.1 °C 93% 1008.8 hPa 16.1 km SSW 11.1 km/h / 3.1 m/s - N/A   Overcast
7:35 AM 22.0 °C - 22.0 °C 100% 1009.7 hPa 16.1 km SW 5.6 km/h / 1.5 m/s - N/A   Overcast
7:52 AM 22.2 °C - 21.1 °C 93% 1009.1 hPa 16.1 km SW 9.3 km/h / 2.6 m/s - N/A   Scattered Clouds
8:24 AM 22.0 °C - 21.0 °C 94% 1010.0 hPa 16.1 km SSW 7.4 km/h / 2.1 m/s - N/A   Mostly Cloudy
8:52 AM 22.8 °C - 21.7 °C 93% 1009.8 hPa 16.1 km SSW 5.6 km/h / 1.5 m/s - N/A   Overcast
9:21 AM 23.0 °C - 22.0 °C 94% 1010.7 hPa 16.1 km SSW 7.4 km/h / 2.1 m/s - N/A   Overcast
9:52 AM 23.3 °C - 21.7 °C 91% 1010.5 hPa 16.1 km SW 11.1 km/h / 3.1 m/s - N/A   Mostly Cloudy
10:52 AM 25.0 °C - 22.2 °C 84% 1010.2 hPa 16.1 km WSW 7.4 km/h / 2.1 m/s - N/A   Mostly Cloudy
11:11 AM 26.0 °C - 22.0 °C 78% 1010.7 hPa 16.1 km Calm Calm - N/A   Partly Cloudy
11:52 AM 26.1 °C - 22.2 °C 79% 1010.4 hPa 16.1 km SW 9.3 km/h / 2.6 m/s - N/A   Mostly Cloudy
12:42 PM 27.0 °C 29.2 °C 22.0 °C 74% 1010.7 hPa 16.1 km SW 14.8 km/h / 4.1 m/s - N/A   Mostly Cloudy
12:52 PM 27.2 °C 29.4 °C 21.7 °C 72% 1010.3 hPa 16.1 km WSW 13.0 km/h / 3.6 m/s - N/A   Mostly Cloudy
1:52 PM 28.3 °C 30.5 °C 21.1 °C 65% 1010.2 hPa 16.1 km West 20.4 km/h / 5.7 m/s - N/A   Scattered Clouds
2:52 PM 29.4 °C 30.9 °C 19.4 °C 55% 1009.9 hPa 16.1 km West 20.4 km/h / 5.7 m/s - N/A   Scattered Clouds
3:52 PM 28.9 °C 30.3 °C 19.4 °C 56% 1009.8 hPa 16.1 km WNW 14.8 km/h / 4.1 m/s - N/A   Partly Cloudy
4:52 PM 28.9 °C 30.2 °C 18.9 °C 55% 1009.9 hPa 16.1 km NNW 9.3 km/h / 2.6 m/s - N/A   Mostly Cloudy
5:52 PM 30.0 °C 30.1 °C 16.1 °C 43% 1010.0 hPa 16.1 km NW 14.8 km/h / 4.1 m/s - N/A   Clear
6:52 PM 28.3 °C 28.7 °C 16.7 °C 49% 1010.1 hPa 16.1 km NNW 11.1 km/h / 3.1 m/s - N/A   Clear
7:52 PM 27.8 °C 28.8 °C 18.3 °C 56% 1010.4 hPa 16.1 km North 7.4 km/h / 2.1 m/s - N/A   Clear
8:52 PM 26.7 °C 27.6 °C 17.8 °C 58% 1010.9 hPa 16.1 km North 9.3 km/h / 2.6 m/s - N/A   Clear
9:52 PM 24.4 °C - 18.3 °C 69% 1011.9 hPa 16.1 km Calm Calm - N/A   Clear
10:52 PM 23.3 °C - 16.7 °C 66% 1012.6 hPa 16.1 km North 9.3 km/h / 2.6 m/s - N/A   Clear
11:52 PM 22.2 °C - 16.7 °C 71% 1012.6 hPa 16.1 km North 7.4 km/h / 2.1 m/s - N/A   Clear